[[{"header":{"parameterUnit":"m.s-1","parameterCategory":1,"la1":30.2992,"la2":30.254,"lo1":-89.0895,"lo2":-89.0443,"dy":0.0025,"dx":0.0025,"nx":19,"ny":19,"refTime":"2026-04-30T09:00:00:Z","depth":0,"parameterNumber":2,"parameterNumberName":"U-component_of_WINDS"},"data":[0,0,0,-4.6171,-4.6172,-4.6198,-4.6197,-4.6283,-4.6284,0,0,0,0,0,0,0,0,0,0,0,-4.6194,-4.6195,-4.617,-4.6172,-4.6198,-4.6197,-4.6283,-4.6284,0,0,0,0,0,0,0,0,0,0,0,-4.6193,-4.6195,-4.6197,-4.6172,-4.6198,-4.6197,-4.6282,-4.6245,0,0,0,0,0,0,0,0,0,0,-4.6211,-4.6262,-4.6195,-4.6197,-4.6173,-4.6198,-4.6197,-4.6242,-4.6247,-4.6294,0,-4.6342,0,-4.6315,-4.6293,-4.6294,0,0,0,-4.6149,-4.6258,-4.6237,-4.6197,-4.6173,-4.6198,-4.618,-4.6244,-4.625,-4.6301,-4.6343,-4.6345,-4.6317,-4.6294,-4.6295,-4.6639,-4.6642,0,0,-4.6148,-4.6215,-4.6233,-4.6242,-4.6241,-4.6179,-4.6181,-4.6247,-4.6298,-4.6343,-4.6346,-4.6318,-4.6295,-4.6296,-4.6636,-4.664,0,0,0,-4.6159,-4.6215,-4.6191,-4.624,-4.6241,-4.618,-4.6182,-4.6295,-4.6281,-4.6347,-4.6319,-4.6296,-4.6297,-4.6633,-4.6638,-4.6835,0,0,0,-4.6157,-4.6221,-4.6192,-4.6234,-4.6241,-4.6268,-4.623,-4.6277,-4.6282,-4.6319,-4.6296,-4.6299,-4.663,-4.6636,-4.6823,-4.6917,0,0,0,-4.6182,-4.6224,-4.6238,-4.6237,-4.625,-4.6265,-4.6255,-4.6276,-4.6267,-4.6294,-4.6299,-4.6628,-4.6635,-4.6813,-4.6899,-4.7028,0,0,0,-4.6227,-4.6413,-4.6243,-4.644,-4.6251,-4.6387,-4.6253,-4.6352,-4.6399,-4.6297,-4.6631,-4.6637,-4.6809,-4.6889,-4.7017,-4.7148,-4.7208,0,0,-4.65,-4.6449,-4.6559,-4.6407,-4.6592,-4.6378,-4.6591,-4.6571,-4.6512,-4.66,-4.6608,-4.6827,-4.6898,-4.7025,-4.7526,-4.7575,0,0,0,-4.6669,-4.6749,-4.6783,-4.6831,-4.682,-4.6819,-4.6758,-4.6751,-4.6822,-4.6571,-4.6906,-4.6946,-4.7018,-4.7078,-4.7119,-4.7177,-4.6668,-4.6667,-4.6666,-4.715,-4.7065,-4.7243,-4.7163,-4.7211,-4.7148,-4.718,-4.7159,-4.7059,-4.714,-4.7165,-4.748,-4.7552,-4.7582,-4.7644,-4.7228,-4.7228,-4.7229,-4.723,-4.7541,-4.7642,-4.7506,-4.763,-4.754,-4.7643,-4.7591,-4.7517,-4.7601,-4.7453,-4.7512,-4.7357,-4.7639,-4.7688,-4.7244,-4.7241,-4.7239,-4.7238,-4.7237,-4.7847,-4.788,-4.7868,-4.793,-4.7987,-4.7899,-4.7987,-4.7901,-4.7822,-4.7881,-4.7899,-4.7895,-4.7881,-4.7895,-4.7897,-4.7898,-4.7899,-4.7899,-4.79,-4.8168,-4.8148,-4.8232,-4.8238,-4.8258,-4.8274,-4.8214,-4.8232,-4.8231,-4.8162,-4.8161,-4.8055,-4.7682,-4.759,-4.7917,-4.7914,-4.7911,-4.791,-4.7909,-4.8595,-4.8485,-4.8615,-4.8636,-4.8636,-4.87,-4.859,-4.8635,-4.8638,-4.8684,-4.8565,-4.8303,-4.8245,-4.8211,-4.8134,-4.8582,-4.8582,-4.8582,-4.8582,-4.8853,-4.8815,-4.8929,-4.8968,-4.8996,-4.8911,-4.9062,-4.9019,-4.8957,-4.8954,-4.8877,-4.8768,-4.8738,-4.8697,-4.8653,-4.858,-4.9131,-4.9132,-4.9132,-4.9111,-4.9073,-4.9216,-4.9153,-4.9148,-4.9146,-4.9286,-4.9337,-4.9244,-4.9153,-4.895,-4.8927,-4.875,-4.8697,-4.86,-4.8534,-4.8398,0,0]},{"header":{"parameterUnit":"m.s-1","parameterCategory":1,"la1":30.2992,"la2":30.254,"lo1":-89.0895,"lo2":-89.0443,"dy":0.0025,"dx":0.0025,"nx":19,"ny":19,"refTime":"2026-04-30T09:00:00:Z","depth":0,"parameterNumber":3,"parameterNumberName":"V-component_of_WINDS"},"data":[0,0,0,2.0385,2.0385,2.0408,2.0408,2.0442,2.0443,0,0,0,0,0,0,0,0,0,0,0,2.0381,2.0382,2.0385,2.0385,2.0408,2.0408,2.0442,2.0443,0,0,0,0,0,0,0,0,0,0,0,2.0381,2.0381,2.0382,2.0385,2.0408,2.0408,2.0442,2.0423,0,0,0,0,0,0,0,0,0,0,2.04,2.04,2.0381,2.0382,2.0386,2.0408,2.0408,2.0422,2.0424,2.0434,0,2.0444,0,2.0444,2.0445,2.0445,0,0,0,2.0382,2.0398,2.0402,2.0382,2.0386,2.0408,2.0397,2.0423,2.0426,2.0437,2.0445,2.0446,2.0445,2.0446,2.0446,2.0514,2.0514,0,0,2.0381,2.0387,2.04,2.0403,2.0401,2.0396,2.0398,2.0425,2.0433,2.0445,2.0447,2.0445,2.0446,2.0446,2.0513,2.0514,0,0,0,2.0379,2.0386,2.0389,2.0402,2.0406,2.0397,2.0399,2.0432,2.0432,2.0447,2.0446,2.0446,2.0447,2.0513,2.0513,2.054,0,0,0,2.0379,2.0385,2.0388,2.0392,2.0406,2.0419,2.0406,2.043,2.0433,2.0446,2.0446,2.0447,2.0512,2.0513,2.0539,2.0552,0,0,0,2.0379,2.0385,2.039,2.0392,2.0402,2.0419,2.0421,2.0431,2.0433,2.0445,2.0447,2.0512,2.0513,2.0537,2.0549,2.057,0,0,0,2.038,2.0413,2.039,2.0427,2.0402,2.0436,2.042,2.0445,2.0459,2.0446,2.0512,2.0513,2.0536,2.0547,2.0569,2.0588,2.0598,0,0,2.0425,2.0419,2.044,2.042,2.046,2.0432,2.0475,2.0483,2.0478,2.0502,2.0504,2.0539,2.0549,2.057,2.065,2.0657,0,0,0,2.0457,2.0472,2.0481,2.0495,2.0503,2.0509,2.051,2.0513,2.0532,2.0492,2.0553,2.0559,2.0571,2.058,2.0586,2.0596,2.0518,2.0518,2.0518,2.0527,2.0521,2.0556,2.0552,2.0567,2.0567,2.0578,2.0581,2.057,2.0585,2.0591,2.0641,2.0652,2.0656,2.0666,2.0603,2.0603,2.0603,2.0603,2.0592,2.0612,2.0598,2.0626,2.0619,2.0643,2.0645,2.0636,2.0657,2.0635,2.0646,2.0621,2.0664,2.0673,2.0605,2.0605,2.0604,2.0604,2.0604,2.0636,2.0644,2.0648,2.0669,2.0685,2.0681,2.0701,2.0694,2.0688,2.0698,2.0703,2.0703,2.07,2.0702,2.0702,2.0702,2.0702,2.0702,2.0702,2.068,2.0683,2.0701,2.0713,2.0721,2.0731,2.0733,2.0741,2.0748,2.0741,2.0741,2.0728,2.0671,2.0655,2.0705,2.0704,2.0704,2.0704,2.0704,2.0744,2.0729,2.0757,2.0766,2.0778,2.0795,2.0787,2.0803,2.0809,2.0819,2.0805,2.0764,2.0756,2.0751,2.0738,2.0807,2.0807,2.0807,2.0807,2.078,2.0777,2.0804,2.0818,2.0831,2.0827,2.0858,2.0861,2.086,2.0863,2.0853,2.0836,2.0831,2.0826,2.082,2.0807,2.0892,2.0892,2.0892,2.0819,2.0817,2.0844,2.0845,2.0855,2.0863,2.0892,2.0908,2.0904,2.0895,2.0865,2.0861,2.0834,2.0826,2.0813,2.0803,2.0781,0,0]}]]